Flag for Australia Weather past 2 weeks in Adelaide, South Australia, Australia

Now
52 °F

Scattered showers. Broken clouds.


Feels Like: 49 °F
Forecast: 49 / 55 °F
Wind: 9 mph from Northwest

Location: Adelaide Airport

Current Time: Aug 4, 2015 at 3:40:42 PM

Latest Report: Aug 4, 2015 at 3:00 PM


Visibility: N/A

Pressure: 30.27 "Hg

Humidity: 88%

Dew point: 48 °F

Location of AdelaideLocation

Historic Weather in Adelaide — Graph

°F

Adelaide temperature yesterday

Maximum temperature yesterday: 55 °F (at 11:00 AM)
Minimum temperature yesterday: 45 °F (at 11:00 PM)
Average temperature yesterday: 52 °F

Past Weeks' High & Low Weather Summary

 TemperatureHumidityPressure
High64 °F (Jul 23, 2:30 PM)100% (Jul 22, 7:30 AM)30.66 "Hg (Jul 22, 7:30 AM)
Low37 °F (Jul 23, 6:00 AM)41% (Jul 20, 3:00 PM)29.89 "Hg (Aug 1, 12:30 AM)
Average51 °F75%30.18 "Hg
* Reported Jul 20 2:30 PM — Aug 4 2:30 PM, Adelaide, Weather by CustomWeather, © 2015

Note: Actual official high and low records may vary slightly from our data, if they occured in-between our weather recording intervals... More about our weather records

Advertising

Adelaide weather history for previous 24 hours

 ConditionsComfort  
Time TempWeatherWind HumidityBarometerVisibility
2:30 PM
Tue, Aug 4
52 °FScattered showers. Broken clouds.14 mph82%30.27 "HgN/A
2:00 PM52 °FPartly sunny.13 mph88%30.27 "HgN/A
1:30 PM54 °FPartly sunny.13 mph77%30.27 "HgN/A
1:00 PM54 °FBroken clouds.10 mph72%30.30 "HgN/A
12:30 PM54 °FBroken clouds.12 mph72%30.30 "HgN/A
12:00 PM54 °FBroken clouds.13 mph77%30.33 "HgN/A
11:30 AM54 °FBroken clouds.12 mph77%30.33 "HgN/A
11:00 AM54 °FPartly sunny.10 mph82%30.33 "HgN/A
10:30 AM52 °FBroken clouds.9 mph82%30.33 "HgN/A
10:00 AM50 °FPartly sunny.8 mph88%30.33 "HgN/A
9:30 AM48 °FPartly sunny.8 mph94%30.36 "HgN/A
9:00 AM48 °FPartly sunny.6 mph94%30.36 "HgN/A
8:30 AM46 °FPartly sunny.6 mph93%30.33 "HgN/A
8:00 AM45 °FPartly sunny.3 mph100%30.33 "HgN/A
7:30 AM45 °FPartly sunny.6 mph100%30.33 "HgN/A
7:00 AM45 °FScattered clouds.7 mph93%30.33 "HgN/A
6:30 AM45 °FScattered showers. Passing clouds.5 mph100%30.33 "HgN/A
6:00 AM45 °FSprinkles. Passing clouds.6 mph100%30.33 "HgN/A
5:30 AM45 °FPassing clouds.6 mph93%30.33 "HgN/A
5:00 AM46 °FPassing clouds.6 mph93%30.33 "HgN/A
4:30 AM46 °FPassing clouds.6 mph93%30.30 "HgN/A
4:00 AM46 °FPassing clouds.7 mph93%30.30 "HgN/A
3:30 AM46 °FSprinkles. Passing clouds.6 mph93%30.30 "Hg5 mi
3:00 AM45 °FPartly cloudy.5 mph93%30.33 "HgN/A
2:30 AM45 °FPassing clouds.6 mph100%30.33 "HgN/A
2:00 AM46 °FPassing clouds.3 mph93%30.33 "HgN/A
1:30 AM46 °FPassing clouds.5 mph93%30.33 "HgN/A
1:00 AM46 °FSprinkles. Mostly cloudy.No wind93%30.33 "Hg5 mi
12:30 AM45 °FSprinkles. Passing clouds.5 mph93%30.33 "HgN/A
12:00 AM45 °FScattered showers. Passing clouds.5 mph93%30.33 "HgN/A
11:30 PM
Mon, Aug 3
45 °FPassing clouds.3 mph93%30.33 "HgN/A
11:00 PM45 °FPassing clouds.3 mph100%30.33 "HgN/A
10:30 PM46 °FPassing clouds.6 mph93%30.33 "HgN/A
10:00 PM46 °FSprinkles. Partly cloudy.5 mph93%30.33 "HgN/A
9:30 PM46 °FPassing clouds.2 mph93%30.33 "HgN/A
9:00 PM48 °FRain showers. Passing clouds.6 mph87%30.33 "HgN/A
8:30 PM46 °FScattered showers. Passing clouds.5 mph82%30.33 "HgN/A
8:00 PM48 °FPassing clouds.5 mph82%30.33 "HgN/A
7:30 PM50 °FPassing clouds.8 mph76%30.33 "HgN/A
7:00 PM52 °FScattered showers. Passing clouds.7 mph72%30.33 "HgN/A
6:30 PM50 °FPassing clouds.8 mph82%30.30 "HgN/A
6:00 PM52 °FPassing clouds.7 mph67%30.30 "HgN/A
5:30 PM52 °FPassing clouds.10 mph77%30.30 "HgN/A
5:00 PM52 °FPartly sunny.10 mph77%30.30 "HgN/A
4:30 PM54 °FPartly sunny.9 mph72%30.30 "HgN/A
4:00 PM52 °FBroken clouds.10 mph82%30.30 "HgN/A
3:30 PM52 °FScattered showers. Broken clouds.16 mph77%30.27 "HgN/A
3:00 PM54 °FScattered clouds.10 mph77%30.27 "HgN/A
Weather by CustomWeather, © 2015

See weather overviewHow to use our weather pages